TRA87M LDDU-EHRD

Flight info

Callsign TRA87M
Flight time N/A
Altitude 40000
Route AMUGO DCT UVODI DCT SPL DCT PEVAL DCT MOBDO DCT SOTOV DCT KPT L608 LIRSU DCT SOGRI L608 BUB Y28 HELEN
Aircraft B738/M-SDE2E3FGHIJ1RWXYZ/LB1

Departure

Time 2026-04-29 11:26
Airport Dubrovnik Ruđer Bošković Airport (LDDU)

Arrival

Time N/A
Airport Rotterdam The Hague Airport (EHRD)
Time Latitude Longitude Altitude Speed Heading
2026-04-29 11:04 42.56092 18.26305 533 ft 0 kts 208°
2026-04-29 11:19 42.56108 18.26317 533 ft 4 kts 208°
2026-04-29 11:20 42.56127 18.26331 533 ft 4 kts 223°
2026-04-29 11:20 42.56134 18.26356 533 ft 4 kts 291°
2026-04-29 11:20 42.56123 18.26387 533 ft 4 kts 298°
2026-04-29 11:20 42.56121 18.26393 533 ft 0 kts 298°
2026-04-29 11:22 42.56130 18.26370 533 ft 8 kts 298°
2026-04-29 11:22 42.56174 18.26256 533 ft 19 kts 298°
2026-04-29 11:23 42.56246 18.26075 533 ft 23 kts 298°
2026-04-29 11:23 42.56321 18.25886 533 ft 22 kts 298°
2026-04-29 11:23 42.56393 18.25704 533 ft 22 kts 299°
2026-04-29 11:23 42.56464 18.25526 533 ft 21 kts 298°
2026-04-29 11:24 42.56533 18.25353 533 ft 20 kts 297°
2026-04-29 11:24 42.56599 18.25186 533 ft 20 kts 297°
2026-04-29 11:24 42.56663 18.25023 533 ft 19 kts 299°
2026-04-29 11:24 42.56726 18.24867 533 ft 19 kts 298°
2026-04-29 11:25 42.56784 18.24723 533 ft 15 kts 304°
2026-04-29 11:25 42.56876 18.24677 532 ft 15 kts 14°
2026-04-29 11:25 42.56937 18.24773 532 ft 14 kts 80°
2026-04-29 11:25 42.56909 18.24878 532 ft 13 kts 118°
2026-04-29 11:26 42.56458 18.26013 534 ft 134 kts 119°
2026-04-29 11:26 42.55979 18.27275 906 ft 155 kts 120°
2026-04-29 11:26 42.55473 18.28568 1701 ft 157 kts 121°
2026-04-29 11:27 42.54922 18.29959 2341 ft 179 kts 122°
2026-04-29 11:27 42.54308 18.31552 2843 ft 202 kts 119°
2026-04-29 11:27 42.53586 18.33229 3474 ft 210 kts 129°
2026-04-29 11:27 42.52378 18.34384 4075 ft 224 kts 165°
2026-04-29 11:28 42.50828 18.34265 4843 ft 227 kts 202°
2026-04-29 11:28 42.49526 18.33069 5651 ft 233 kts 229°
2026-04-29 11:28 42.48656 18.31126 6078 ft 254 kts 244°
2026-04-29 11:28 42.47884 18.28863 6575 ft 271 kts 245°
2026-04-29 11:29 42.47240 18.26436 7324 ft 277 kts 264°
2026-04-29 11:29 42.47578 18.23893 8160 ft 280 kts 297°
2026-04-29 11:29 42.48716 18.21748 8975 ft 283 kts 307°
2026-04-29 11:29 42.49920 18.19614 9769 ft 286 kts 307°
2026-04-29 11:30 42.51126 18.17459 10628 ft 286 kts 306°
2026-04-29 11:30 42.52323 18.15304 11499 ft 287 kts 306°
2026-04-29 11:30 42.53523 18.13130 12302 ft 289 kts 306°
2026-04-29 11:30 42.54727 18.10939 13171 ft 290 kts 306°
2026-04-29 11:31 42.55929 18.08742 14041 ft 290 kts 306°
2026-04-29 11:31 42.57129 18.06538 14631 ft 303 kts 306°
2026-04-29 11:31 42.58445 18.04114 14921 ft 324 kts 305°
2026-04-29 11:31 42.59778 18.01659 15561 ft 331 kts 305°
2026-04-29 11:32 42.61145 17.99135 16379 ft 332 kts 305°
2026-04-29 11:32 42.62516 17.96600 17192 ft 334 kts 305°
2026-04-29 11:32 42.63893 17.94047 17951 ft 336 kts 305°
2026-04-29 11:32 42.65282 17.91472 18661 ft 340 kts 305°
2026-04-29 11:33 42.66684 17.88871 19371 ft 342 kts 305°
2026-04-29 11:33 42.68095 17.86247 20041 ft 346 kts 305°
2026-04-29 11:33 42.69521 17.83593 20689 ft 349 kts 305°
2026-04-29 11:33 42.70959 17.80914 21326 ft 352 kts 305°
2026-04-29 11:34 42.72408 17.78216 21946 ft 354 kts 305°
2026-04-29 11:34 42.73869 17.75492 22521 ft 358 kts 305°
2026-04-29 11:34 42.75346 17.72735 23047 ft 363 kts 305°
2026-04-29 11:34 42.76837 17.69948 23616 ft 365 kts 304°
2026-04-29 11:35 42.78335 17.67144 24197 ft 367 kts 304°
2026-04-29 11:35 42.79844 17.64320 24726 ft 371 kts 304°
2026-04-29 11:35 42.81365 17.61470 25240 ft 373 kts 304°
2026-04-29 11:35 42.82896 17.58599 25758 ft 376 kts 304°
2026-04-29 11:36 42.84435 17.55707 26248 ft 378 kts 304°
2026-04-29 11:36 42.85983 17.52797 26726 ft 380 kts 304°
2026-04-29 11:36 42.87540 17.49868 27207 ft 383 kts 304°
2026-04-29 11:36 42.89103 17.46925 27686 ft 384 kts 304°
2026-04-29 11:37 42.90675 17.43964 28122 ft 387 kts 304°
2026-04-29 11:37 42.92253 17.40985 28552 ft 389 kts 304°
2026-04-29 11:37 42.93841 17.37987 28974 ft 391 kts 304°
2026-04-29 11:37 42.95436 17.34972 29381 ft 393 kts 304°
2026-04-29 11:38 42.97037 17.31939 29768 ft 395 kts 304°
2026-04-29 11:38 42.98647 17.28889 30125 ft 397 kts 304°
2026-04-29 11:38 43.00266 17.25819 30501 ft 399 kts 304°
2026-04-29 11:38 43.01887 17.22743 30882 ft 400 kts 304°
2026-04-29 11:39 43.03512 17.19655 31242 ft 401 kts 304°
2026-04-29 11:39 43.05144 17.16552 31557 ft 403 kts 304°
2026-04-29 11:39 43.06780 17.13435 31868 ft 404 kts 304°
2026-04-29 11:39 43.08422 17.10306 32177 ft 405 kts 304°
2026-04-29 11:40 43.10066 17.07167 32488 ft 407 kts 304°
2026-04-29 11:40 43.11716 17.04017 32751 ft 408 kts 304°
2026-04-29 11:40 43.13370 17.00853 33044 ft 409 kts 304°
2026-04-29 11:40 43.15022 16.97691 33409 ft 408 kts 304°
2026-04-29 11:41 43.16664 16.94545 33838 ft 405 kts 304°
2026-04-29 11:41 43.18296 16.91415 34216 ft 403 kts 304°
2026-04-29 11:41 43.19920 16.88297 34546 ft 402 kts 304°
2026-04-29 11:41 43.21543 16.85177 34811 ft 402 kts 304°
2026-04-29 11:42 43.23147 16.82088 35090 ft 403 kts 303°
2026-04-29 11:42 43.24767 16.78966 35429 ft 401 kts 303°
2026-04-29 11:42 43.26378 16.75860 35777 ft 399 kts 303°
2026-04-29 11:42 43.27985 16.72759 36066 ft 399 kts 303°
2026-04-29 11:43 43.29590 16.69656 36319 ft 399 kts 303°
2026-04-29 11:43 43.31196 16.66547 36571 ft 399 kts 303°
2026-04-29 11:43 43.32799 16.63443 36937 ft 396 kts 303°
2026-04-29 11:43 43.34375 16.60387 37464 ft 388 kts 303°
2026-04-29 11:44 43.35929 16.57372 37823 ft 386 kts 303°
2026-04-29 11:44 43.37481 16.54355 37950 ft 388 kts 303°
2026-04-29 11:44 43.39041 16.51319 38108 ft 390 kts 303°
2026-04-29 11:44 43.40605 16.48277 38340 ft 388 kts 303°
2026-04-29 11:45 43.42160 16.45246 38540 ft 388 kts 303°
2026-04-29 11:45 43.43718 16.42203 38693 ft 389 kts 303°
2026-04-29 11:45 43.45278 16.39156 38883 ft 389 kts 303°
2026-04-29 11:45 43.46836 16.36112 39107 ft 388 kts 303°
2026-04-29 11:46 43.48387 16.33076 39309 ft 388 kts 303°
2026-04-29 11:46 43.49956 16.30046 39393 ft 391 kts 306°
2026-04-29 11:46 43.51676 16.27132 39502 ft 393 kts 308°
2026-04-29 11:46 43.53457 16.24282 39689 ft 392 kts 308°
2026-04-29 11:47 43.55255 16.21451 39836 ft 393 kts 309°
2026-04-29 11:47 43.57063 16.18607 39910 ft 395 kts 308°
2026-04-29 11:47 43.58873 16.15745 40031 ft 396 kts 308°
2026-04-29 11:47 43.60681 16.12867 40070 ft 398 kts 308°
2026-04-29 11:48 43.64321 16.07034 40087 ft 403 kts 308°
2026-04-29 11:48 43.67996 16.01112 40081 ft 408 kts 308°
2026-04-29 11:49 43.71690 15.95140 40081 ft 409 kts 308°
2026-04-29 11:49 43.75354 15.89208 40076 ft 401 kts 308°
2026-04-29 11:50 43.78953 15.83369 40083 ft 397 kts 308°
2026-04-29 11:50 43.82527 15.77554 40080 ft 396 kts 308°
2026-04-29 11:51 43.86074 15.71772 40087 ft 395 kts 308°
2026-04-29 11:51 43.89641 15.65947 40085 ft 395 kts 308°
2026-04-29 11:52 43.93177 15.60159 40086 ft 396 kts 308°
2026-04-29 11:52 43.96748 15.54303 40069 ft 398 kts 308°
2026-04-29 11:53 44.00334 15.48411 40080 ft 400 kts 308°
2026-04-29 11:53 44.03931 15.42489 40077 ft 402 kts 308°
2026-04-29 11:54 44.07541 15.36533 40077 ft 403 kts 308°
2026-04-29 11:54 44.11156 15.30558 40078 ft 404 kts 308°
2026-04-29 11:55 44.14774 15.24564 40075 ft 405 kts 308°
2026-04-29 11:55 44.18394 15.18554 40060 ft 405 kts 308°
2026-04-29 11:56 44.22009 15.12539 40069 ft 405 kts 308°
2026-04-29 11:56 44.25621 15.06518 40084 ft 404 kts 307°
2026-04-29 11:57 44.29226 15.00496 40080 ft 404 kts 307°
2026-04-29 11:57 44.32822 14.94475 40084 ft 403 kts 307°
2026-04-29 11:58 44.36411 14.88453 40083 ft 403 kts 307°
2026-04-29 11:58 44.39996 14.82426 40085 ft 403 kts 307°
2026-04-29 11:59 44.43574 14.76397 40093 ft 403 kts 307°
2026-04-29 11:59 44.47150 14.70359 40093 ft 403 kts 307°
2026-04-29 12:00 44.50121 14.65332 40093 ft 403 kts 307°
2026-04-29 12:00 44.53694 14.59277 40094 ft 403 kts 307°
2026-04-29 12:01 44.57870 14.52182 40097 ft 404 kts 307°
2026-04-29 12:01 44.60843 14.47121 40088 ft 405 kts 307°
2026-04-29 12:02 44.64420 14.41018 40083 ft 405 kts 307°
2026-04-29 12:02 44.68001 14.34897 40080 ft 405 kts 307°
2026-04-29 12:03 44.71578 14.28769 40086 ft 406 kts 307°
2026-04-29 12:03 44.75159 14.22621 40083 ft 406 kts 307°
2026-04-29 12:04 44.78739 14.16460 40084 ft 407 kts 307°
2026-04-29 12:04 44.82296 14.10328 40081 ft 407 kts 307°
2026-04-29 12:05 44.85872 14.04148 40075 ft 407 kts 307°
2026-04-29 12:05 44.89447 13.97957 40064 ft 407 kts 307°
2026-04-29 12:06 44.93018 13.91758 40081 ft 407 kts 307°
2026-04-29 12:06 44.96585 13.85555 40078 ft 407 kts 307°
2026-04-29 12:07 45.00151 13.79339 40076 ft 407 kts 307°
2026-04-29 12:07 45.03714 13.73113 40073 ft 408 kts 307°